Stations météo

réclame
Mon MeteoGroup
Perpignan, France (7747): Température de l'air & dewpoint: 17.08.2019 13:00:00 - 23.08.2019 13:00:00 (CEST)Perpignan, France (7747): Température de l'air 5cm: 17.08.2019 13:00:00 - 23.08.2019 13:00:00 (CEST)Perpignan, France (7747): Température de l'air -20cm & Température de l'air -100cm: 17.08.2019 13:00:00 - 23.08.2019 13:00:00 (CEST)Perpignan, France (7747): Vitesse du vent & gusts: 17.08.2019 13:00:00 - 23.08.2019 13:00:00 (CEST)Perpignan, France (7747): Direction du vent: 17.08.2019 13:00:00 - 23.08.2019 13:00:00 (CEST)Perpignan, France (7747): reduced air pressure: 17.08.2019 13:00:00 - 23.08.2019 13:00:00 (CEST)Perpignan, France (7747): visibility: 17.08.2019 13:00:00 - 23.08.2019 13:00:00 (CEST)Perpignan, France (7747): Quantités de précipitations: 17.08.2019 13:00:00 - 23.08.2019 13:00:00 (CEST)
Date & Time tt [°C] td [°C] tt 5cm [°C] tt -20cm [°C] tt -100cm [°C] ff [km/h] ff [knt] fx [km/h] fx [knt] dd ppp [hPa] vv [km] rr [mm]
23.08.2019 13:00:00 31,0 13,7 39,4 27,2 26,5 11 6 21 11 SE 1019,3 60 0,0
23.08.2019 12:00:00 30,7 11,6 39,4 27,0 26,5 6 3 16 9 SE 1019,6 52 0,0
23.08.2019 11:00:00 28,4 11,0 38,5 27,0 26,5 7 4 15 8 SSW 1019,9 9 0,0
23.08.2019 10:00:00 26,7 9,5 33,8 27,1 26,5 6 3 13 7 SW 1020,3 42 0,0
23.08.2019 09:00:00 23,6 10,3 25,7 27,3 26,5 3 2 6 4 WNW 1020,4 50 0,0
23.08.2019 08:00:00 19,6 9,8 16,2 27,5 26,5 4 2 11 6 WSW 1020,4 59 0,0
23.08.2019 07:00:00 18,6 9,4 14,0 27,8 26,5 8 4 11 6 SW 1020,3 60 0,0
23.08.2019 06:00:00 18,6 9,4 14,3 28,1 26,5 0 0 5 3 N 1020,4 60 0,0
23.08.2019 05:00:00 19,6 8,9 15,0 28,3 26,5 2 1 10 5 ESE 1020,5 60 0,0
23.08.2019 04:00:00 20,7 9,3 16,4 28,5 26,5 6 4 11 6 WSW 1020,5 60 0,0
23.08.2019 03:00:00 22,3 9,1 18,8 28,8 26,5 11 6 15 8 WSW 1020,3 60 0,0
23.08.2019 02:00:00 22,5 9,3 17,9 29,1 26,5 7 4 11 6 SW 1020,2 60 0,0
23.08.2019 01:00:00 23,2 8,8 18,0 29,3 26,5 6 3 12 6 WSW 1020,3 60 0,0
23.08.2019 00:00:00 24,2 9,0 19,4 29,6 26,5 8 4 22 12 SW 1020,3 60 0,0
22.08.2019 23:00:00 26,3 8,7 24,9 29,8 26,5 16 9 29 16 NW 1020,4 60 0,0
22.08.2019 22:00:00 26,9 8,3 25,4 29,9 26,5 16 9 27 15 NW 1020,2 60 0,0
22.08.2019 21:00:00 27,7 7,5 26,2 29,9 26,5 14 7 32 18 NW 1019,7 60 0,0
22.08.2019 20:00:00 29,8 7,1 29,5 29,8 26,6 18 10 29 16 NW 1019,0 47 0,0
22.08.2019 19:00:00 31,2 7,0 33,9 29,5 26,5 19 11 33 18 NW 1018,6 56 0,0
22.08.2019 18:00:00 31,9 8,2 36,0 29,0 26,6 16 9 36 19 NNW 1019,0 29 0,0
22.08.2019 17:00:00 32,0 7,6 37,6 28,5 26,6 16 9 32 17 N 1018,9 44 0,0
22.08.2019 16:00:00 32,0 6,9 38,2 28,0 26,6 20 11 31 17 N 1019,2 47 0,0
22.08.2019 15:00:00 31,3 6,4 36,7 27,5 26,6 19 10 34 18 NW 1019,6 44 0,0
22.08.2019 14:00:00 30,3 7,5 36,5 27,1 26,6 18 10 40 22 NW 1019,9 37 0,0
22.08.2019 13:00:00 29,5 8,5 36,0 26,7 26,6 26 14 46 25 NW 1020,3 39 0,0
22.08.2019 12:00:00 28,4 7,6 34,5 26,5 26,6 25 13 45 24 NNW 1020,5 42 0,0
22.08.2019 11:00:00 27,6 8,5 32,4 26,5 26,6 23 12 45 24 NW 1020,4 49 0,0
22.08.2019 10:00:00 25,9 9,7 27,5 26,6 26,6 22 12 39 21 NW 1020,5 60 0,0
22.08.2019 09:00:00 24,0 10,3 22,6 26,8 26,6 17 9 28 15 NW 1020,5 60 0,0
22.08.2019 08:00:00 21,7 10,5 17,0 27,0 26,6 17 9 25 14 WNW 1020,2 50 0,0
22.08.2019 07:00:00 19,5 10,5 15,2 27,2 26,6 11 6 20 11 W 1020,0 60 0,0
22.08.2019 06:00:00 20,6 11,0 17,1 27,5 26,6 8 4 16 8 WSW 1019,7 60 0,0
22.08.2019 05:00:00 21,2 10,7 18,0 27,7 26,6 10 5 19 10 W 1019,7 60 0,0
22.08.2019 04:00:00 23,0 11,1 21,5 27,9 26,7 11 6 30 16 NW 1019,4 60 0,0
22.08.2019 03:00:00 23,6 11,0 22,7 28,0 26,6 19 10 34 18 NW 1019,3 60 0,0
22.08.2019 02:00:00 23,8 11,1 22,9 28,2 26,7 21 12 37 20 NW 1019,6 60 0,0
22.08.2019 01:00:00 24,3 10,9 23,5 28,5 26,7 22 12 38 21 NW 1019,7 60 0,0
22.08.2019 00:00:00 24,4 11,0 23,6 28,7 26,7 22 12 41 22 NW 1019,6 60 0,0
21.08.2019 23:00:00 24,5 11,1 23,6 28,8 26,7 22 12 41 22 NW 1019,7 60 0,0
21.08.2019 22:00:00 24,5 11,1 23,9 28,9 26,7 24 13 40 22 NW 1019,4 60 0,0
21.08.2019 21:00:00 24,9 10,4 24,0 29,0 26,7 16 9 35 19 NW 1019,1 60 0,0
21.08.2019 20:00:00 26,4 6,9 26,0 28,9 26,7 19 10 29 16 NW 1018,4 59 0,0
21.08.2019 19:00:00 28,1 0,7 29,0 28,6 26,7 16 8 34 19 NNW 1018,5 52 0,0
21.08.2019 18:00:00 30,4 2,6 30,8 28,2 26,7 21 11 35 19 N 1018,0 60 0,0
21.08.2019 17:00:00 30,8 3,7 32,8 27,7 26,7 19 11 33 18 N 1017,9 37 0,0
21.08.2019 16:00:00 31,1 3,2 35,4 27,1 26,7 21 11 36 19 N 1018,1 41 0,0
21.08.2019 15:00:00 30,8 2,9 34,7 26,6 26,7 19 11 36 19 N 1018,6 44 0,0
21.08.2019 14:00:00 29,8 7,7 34,6 26,1 26,8 18 10 36 20 N 1018,8 56 0,0
21.08.2019 13:00:00 29,0 8,6 33,2 25,7 26,8 12 6 29 16 N 1019,5 57 0,0
21.08.2019 12:00:00 26,5 8,5 32,3 25,5 26,8 18 10 34 18 NW 1020,3 56 0,0
21.08.2019 11:00:00 25,3 10,0 28,9 25,5 26,8 18 10 31 17 NW 1020,6 60 0,0
21.08.2019 10:00:00 23,7 10,0 25,6 25,5 26,8 20 11 37 20 NW 1020,7 51 0,0
21.08.2019 09:00:00 22,3 10,8 22,1 25,7 26,8 20 11 32 18 WNW 1021,0 23 0,0
21.08.2019 08:00:00 20,5 11,4 16,4 25,9 26,8 15 8 26 14 WNW 1021,2 31 0,0
21.08.2019 07:00:00 18,3 11,1 16,5 26,0 26,8 14 7 35 19 W 1021,2 60 0,0
21.08.2019 06:00:00 19,7 12,2 18,5 26,2 26,9 23 13 37 20 WNW 1021,2 60 0,0
21.08.2019 05:00:00 19,9 11,9 18,8 26,4 26,8 19 10 42 23 NW 1021,7 60 0,0
21.08.2019 04:00:00 20,2 12,2 18,3 26,6 26,9 22 12 37 20 NW 1021,9 60 0,0
21.08.2019 03:00:00 20,2 12,9 18,9 26,8 26,9 16 8 35 19 NW 1022,6 60 0,0
21.08.2019 02:00:00 20,2 12,9 19,0 27,0 26,8 12 7 32 17 NW 1022,6 60 0,0
21.08.2019 01:00:00 20,1 13,1 18,5 27,2 26,8 16 9 28 15 NW 1023,1 60 0,0
21.08.2019 00:00:00 20,0 13,2 18,6 27,4 26,8 14 8 27 14 WNW 1023,4 60 0,0
20.08.2019 23:00:00 19,9 13,8 18,9 27,5 26,9 13 7 35 19 WNW 1023,5 60 0,0
20.08.2019 22:00:00 20,9 14,1 20,1 27,6 26,9 21 12 33 18 NW 1023,1 60 0,0
20.08.2019 21:00:00 21,7 13,6 20,8 27,7 26,9 13 7 34 18 NNW 1022,8 60 0,0
20.08.2019 20:00:00 23,5 12,5 23,8 27,6 26,9 23 12 40 22 NW 1022,2 44 0,0
20.08.2019 19:00:00 24,3 12,9 26,4 27,6 26,9 25 14 41 22 NW 1021,8 25 0,0
20.08.2019 18:00:00 23,9 12,2 25,0 27,6 26,9 21 11 41 22 NW 1022,0 28 0,0
20.08.2019 17:00:00 22,7 13,5 22,2 27,6 26,9 26 14 42 23 NW 1022,4 49 0,0
20.08.2019 16:00:00 21,0 13,9 20,9 27,6 26,9 13 7 29 15 NNW 1022,4 48 0,0
20.08.2019 15:00:00 20,3 14,9 17,3 27,6 26,9 19 11 49 26 NNW 1021,9 60 0,2
20.08.2019 14:00:00 20,4 13,8 21,4 27,4 26,9 34 18 61 33 NW 1021,9 28 0,0
20.08.2019 13:00:00 21,2 13,9 24,3 27,2 26,9 24 13 57 31 NW 1021,6 38 0,0
20.08.2019 12:00:00 23,7 13,8 27,8 27,1 26,9 37 20 58 31 NW 1021,3 38 0,0
20.08.2019 11:00:00 23,9 13,7 24,9 27,1 26,9 19 10 34 18 NW 1020,1 46 0,0
20.08.2019 10:00:00 21,9 13,8 23,7 27,2 26,9 14 7 35 19 NNW 1019,8 44 0,0
20.08.2019 09:00:00 21,5 13,7 20,9 27,3 26,9 13 7 46 25 WNW 1019,8 60 0,0
20.08.2019 08:00:00 20,4 13,6 19,9 27,4 26,8 22 12 34 19 NNW 1019,5 60 0,0
20.08.2019 07:00:00 20,0 13,2 19,3 27,6 26,9 19 10 32 17 NW 1018,9 60 0,0
20.08.2019 06:00:00 19,8 13,3 19,5 27,8 26,9 15 8 29 15 WNW 1018,3 60 0,0
20.08.2019 05:00:00 19,8 13,5 19,7 28,0 26,9 13 7 27 15 NW 1018,3 60 0,0
20.08.2019 04:00:00 20,2 12,9 19,9 28,1 26,9 8 4 20 11 N 1018,8 60 0,0
20.08.2019 03:00:00 21,0 12,4 20,8 28,3 26,9 7 4 43 23 N 1019,2 60 0,0
20.08.2019 02:00:00 21,7 12,5 21,6 28,4 26,9 27 15 46 25 NW 1019,1 60 0,0
20.08.2019 01:00:00 22,1 12,1 22,0 28,7 26,9 17 9 41 22 NW 1019,1 60 0,0
20.08.2019 00:00:00 22,4 12,6 22,3 28,8 26,9 22 12 35 19 NW 1019,0 60 0,0
19.08.2019 23:00:00 22,5 12,1 22,3 29,0 26,9 19 10 39 21 NW 1019,1 60 0,0
19.08.2019 22:00:00 22,7 11,7 22,6 29,1 26,9 22 12 41 22 NW 1019,1 60 0,0
19.08.2019 21:00:00 23,0 12,6 22,7 29,2 26,9 15 8 30 16 NW 1018,3 60 0,0
19.08.2019 20:00:00 24,0 13,2 24,3 29,3 26,9 16 9 27 15 NW 1017,9 60 0,0
19.08.2019 19:00:00 24,2 14,0 24,5 29,3 26,9 14 8 27 14 NW 1017,9 60 0,0
19.08.2019 18:00:00 24,2 13,7 25,1 29,2 26,9 18 10 32 17 NW 1017,9 58 0,0
19.08.2019 17:00:00 24,3 14,1 26,3 29,1 26,9 22 12 32 17 NW 1018,0 49 0,0
19.08.2019 16:00:00 24,6 14,4 27,1 28,9 26,9 22 12 34 18 NW 1017,7 22 0,0
19.08.2019 15:00:00 25,3 14,7 27,4 28,8 26,9 22 12 37 20 NW 1018,1 15 0,0
19.08.2019 14:00:00 25,4 14,8 28,0 28,7 26,8 22 12 34 18 NW 1017,9 60 0,0
19.08.2019 13:00:00 24,2 14,6 - 28,7 26,8 20 11 37 20 NW 1017,7 48 -
19.08.2019 12:00:00 - - - - - 20 11 39 21 NW - 51 -
19.08.2019 11:00:00 - - - - - 19 10 36 20 NW - 40 -
19.08.2019 10:00:00 - - - - - 13 7 49 26 NNW - 35 -
19.08.2019 09:00:00 - - - - - 25 13 40 21 NW - 42 -
19.08.2019 08:00:00 - - - - - 18 10 49 26 NNW - 60 -
19.08.2019 07:00:00 - - - - - 21 11 45 24 NW - 60 -
19.08.2019 06:00:00 - - - - - 27 14 44 24 NW - 60 -
19.08.2019 05:00:00 - - - - - 23 12 42 23 NW - 60 -
19.08.2019 04:00:00 - - - - - 3 2 7 4 N - 13 -
19.08.2019 03:00:00 - - - - - 2 1 6 3 E - 15 -
19.08.2019 02:00:00 - - - - - 0 0 9 5 N - 17 -
19.08.2019 01:00:00 - - - - - 4 2 10 5 N - 23 -
19.08.2019 00:00:00 - - - - - 8 4 16 9 NE - 16 -
18.08.2019 23:00:00 - - - - - 12 6 19 11 N - 9 -
18.08.2019 22:00:00 - - - - - 11 6 17 9 N - 13 -
18.08.2019 21:00:00 - - - - - 10 5 15 8 N - 13 -
18.08.2019 20:00:00 - - - - - 13 7 24 13 NE - 13 -
18.08.2019 19:00:00 - - - - - 14 8 26 14 NNE - 20 -
18.08.2019 18:00:00 - - - - - 19 10 29 15 NNE - 20 -
18.08.2019 17:00:00 - - - - - 18 10 36 20 NE - 15 -
18.08.2019 16:00:00 - - - - - 26 14 40 21 ENE - 16 -
18.08.2019 15:00:00 - - - - - 18 10 29 16 ENE - 19 -
18.08.2019 14:00:00 - - - - - 19 10 29 16 E - 60 -
18.08.2019 13:00:00 - - - - - 12 7 23 12 NE - 60 -
18.08.2019 12:00:00 - - - - - 11 6 24 13 NE - 51 -
18.08.2019 11:00:00 - - - - - 16 9 26 14 ENE - 38 -
18.08.2019 10:00:00 - - - - - 9 5 15 8 NE - 38 -
18.08.2019 09:00:00 - - - - - 8 5 16 8 NNE - 17 -
18.08.2019 08:00:00 - - - - - 10 5 15 8 NE - 10 -
18.08.2019 07:00:00 - - - - - 8 4 14 8 NE - 14 -
18.08.2019 06:00:00 - - - - - 10 5 14 8 ENE - 14 -
18.08.2019 05:00:00 - - - - - 5 3 9 5 E - 16 -
18.08.2019 04:00:00 - - - - - 6 3 8 4 ESE - 18 -
18.08.2019 03:00:00 - - - - - 4 2 10 5 E - 14 -
18.08.2019 02:00:00 - - - - - 6 4 11 6 ESE - 10 -
18.08.2019 01:00:00 - - - - - 6 3 9 5 SE - 10 -
18.08.2019 00:00:00 - - - - - 5 3 7 4 ESE - 13 -
17.08.2019 23:00:00 - - - - - 5 3 8 4 ESE - 16 -
17.08.2019 22:00:00 - - - - - 4 2 11 6 E - 18 -
17.08.2019 21:00:00 - - - - - 9 5 15 8 ENE - 19 -
17.08.2019 20:00:00 - - - - - 13 7 22 12 NE - 19 -
17.08.2019 19:00:00 - - - - - 13 7 22 12 E - 23 -
17.08.2019 18:00:00 - - - - - 16 9 26 14 NE - 40 -
17.08.2019 17:00:00 - - - - - 12 6 26 14 E - 60 -
17.08.2019 16:00:00 - - - - - 16 8 25 14 ENE - 60 -
17.08.2019 15:00:00 - - - - - 16 9 27 14 E - 54 -
17.08.2019 14:00:00 - - - - - 16 9 28 15 ENE - 58 -
17.08.2019 13:00:00 - - - - - 15 8 24 13 E - 60 -

tt = Température de l'air
td = dewpoint
tt 5cm = Température de l'air 5cm
tt -20cm = Température de l'air -20cm
tt -100cm = Température de l'air -100cm
ff = Vitesse du vent
fx = gusts
dd = Direction du vent
ppp = reduced air pressure
vv = visibility
rr = Quantités de précipitations

stations d'obs. à proximité